Location: Unspecified
(0.0000°N, 0.0000°E)
Time: 02:52:52
(UTC+00:00)

Transit 4A - Pass Details

Date: 14 December 2018
Orbit: 864 x 981 km, 66.8° (Epoch: 18 March)

Event Time Altitude Azimuth Distance (km) Brightness Sun altitude
Rises 12:56:36 0° 7° (N) 3,600 10.7 62.3°
Reaches altitude 10° 12:59:43 10° 22° (NNE) 2,676 10.1 61.9°
Maximum altitude 13:04:25 22° 71° (ENE) 1,969 9.6 61.3°
Drops below altitude 10° 13:09:10 10° 119° (ESE) 2,722 10.4 60.6°
Sets 13:12:20 0° 134° (SE) 3,678 11.1 60.1°
